Waarnemingen

Advertentie
Mijn weer
Saarbrücken-Ensheim, Duitsland (10708): temperatuur & dauwpunt: 21.06.2017 02:00:00 - 27.06.2017 02:00:00 (CEST)Saarbrücken-Ensheim, Duitsland (10708): temperatuur 5cm & temperatuur -5cm: 21.06.2017 02:00:00 - 27.06.2017 02:00:00 (CEST)Saarbrücken-Ensheim, Duitsland (10708): temperatuur -20cm & temperatuur -100cm: 21.06.2017 02:00:00 - 27.06.2017 02:00:00 (CEST)Saarbrücken-Ensheim, Duitsland (10708): windsnelheid & windstoten: 21.06.2017 02:00:00 - 27.06.2017 02:00:00 (CEST)Saarbrücken-Ensheim, Duitsland (10708): windrichting: 21.06.2017 02:00:00 - 27.06.2017 02:00:00 (CEST)Saarbrücken-Ensheim, Duitsland (10708): luchtdruk: 21.06.2017 02:00:00 - 27.06.2017 02:00:00 (CEST)Saarbrücken-Ensheim, Duitsland (10708): zicht: 21.06.2017 02:00:00 - 27.06.2017 02:00:00 (CEST)Saarbrücken-Ensheim, Duitsland (10708): Zonneschijnduur: 21.06.2017 02:00:00 - 27.06.2017 02:00:00 (CEST)Saarbrücken-Ensheim, Duitsland (10708): neerslag: 21.06.2017 02:00:00 - 27.06.2017 02:00:00 (CEST)
Datum & Tijd tt [°C] td [°C] tt 5cm [°C] tt -5cm [°C] tt -20cm [°C] tt -100cm [°C] ff [km/u] ff [kn] fx [km/u] fx [kn] dd ppp [hPa] vv [km] sd [min] rr [mm]
27.06.2017 02:00:00 19,6 14,6 18,9 25,0 27,0 19,5 2 1 13 7 - 1010,7 10 0 0,0
27.06.2017 01:00:00 20,4 14,3 18,9 25,7 27,5 19,5 10 6 21 11 NO 1011,0 55 0 0,0
27.06.2017 00:00:00 21,3 14,3 21,2 26,5 28,0 19,5 16 9 28 15 O 1010,9 60 0 0,0
26.06.2017 23:00:00 22,6 14,2 22,3 27,8 28,6 19,5 18 10 28 15 NO 1010,2 10 0 0,0
26.06.2017 22:00:00 23,1 15,2 20,9 29,6 29,1 19,5 3 2 5 3 WZW 1009,5 70 0 0,0
26.06.2017 21:00:00 24,9 15,6 23,8 31,6 29,5 19,5 8 4 9 5 N 1008,8 10 0 0,0
26.06.2017 20:00:00 26,0 14,3 25,4 33,9 29,6 19,5 5 3 13 7 N 1008,9 65 41 0,0
26.06.2017 19:00:00 27,3 11,9 30,3 36,5 29,5 19,5 7 4 14 8 N 1009,0 60 60 0,0
26.06.2017 18:00:00 27,3 12,4 31,7 37,8 29,1 19,5 8 4 16 9 NNW 1009,5 10 60 0,0
26.06.2017 17:00:00 27,5 13,1 35,8 39,4 28,5 19,5 5 3 18 10 NO 1009,9 60 60 0,0
26.06.2017 16:00:00 26,8 12,6 33,2 39,4 27,6 19,5 5 3 22 12 Z 1010,4 60 60 0,0
26.06.2017 15:00:00 26,4 13,3 34,4 38,8 26,5 19,5 11 6 21 11 W 1011,1 10 60 0,0
26.06.2017 14:00:00 24,5 13,6 31,9 37,2 25,4 19,5 12 7 26 14 W 1011,9 60 60 0,0
26.06.2017 13:00:00 24,3 15,1 31,4 34,9 24,3 19,5 13 7 25 14 W 1012,4 10 59 0,0
26.06.2017 12:00:00 23,3 15,4 29,6 31,9 23,3 19,5 15 8 26 14 W 1012,9 60 60 0,0
26.06.2017 11:00:00 21,7 14,4 26,0 28,8 22,5 19,4 15 8 25 14 WNW 1013,4 60 60 0,0
26.06.2017 10:00:00 20,5 14,9 24,4 25,6 22,0 19,4 13 7 18 10 W 1013,6 60 60 0,0
26.06.2017 09:00:00 19,0 15,0 21,3 22,3 21,8 19,4 9 5 15 8 ZW 1013,8 60 60 0,0
26.06.2017 08:00:00 18,4 14,9 18,8 19,8 21,8 19,4 9 5 13 7 WZW 1014,1 60 60 0,0
26.06.2017 07:00:00 16,8 14,4 15,9 18,3 22,1 19,4 7 4 11 6 ZW 1014,2 60 53 0,0
26.06.2017 06:00:00 14,7 13,2 12,0 18,3 22,4 19,4 8 4 9 5 ZZW 1014,4 10 0 0,0
26.06.2017 05:00:00 15,3 13,0 12,9 18,9 22,8 19,4 5 3 9 5 WZW 1014,4 10 0 0,0
26.06.2017 04:00:00 16,6 13,5 14,6 19,4 23,1 19,4 7 4 15 8 WZW 1014,4 50 0 0,0
26.06.2017 03:00:00 16,9 13,2 15,3 20,0 23,5 19,4 10 5 18 10 WZW 1014,6 50 0 0,0
26.06.2017 02:00:00 18,0 13,4 16,0 20,6 23,9 19,4 13 7 23 12 WZW 1014,5 10 0 0,0
26.06.2017 01:00:00 18,6 13,1 16,7 21,4 24,3 19,4 15 8 24 13 WZW 1014,6 10 0 0,0
26.06.2017 00:00:00 19,1 12,9 16,9 22,3 24,7 19,4 15 8 22 12 ZW 1014,5 10 0 0,0
25.06.2017 23:00:00 19,5 13,0 18,1 22,9 25,1 19,4 13 7 18 10 WZW 1014,6 50 0 0,0
25.06.2017 22:00:00 19,3 12,8 16,1 24,1 25,5 19,4 9 5 23 13 WZW 1014,4 10 11 0,0
25.06.2017 21:00:00 21,5 12,8 19,9 25,6 25,7 19,4 17 9 29 15 W 1013,8 50 35 0,0
25.06.2017 20:00:00 22,5 13,5 22,2 27,2 25,8 19,4 18 10 34 18 W 1013,6 10 36 0,0
25.06.2017 19:00:00 21,9 13,0 23,2 27,8 25,9 19,4 22 12 32 17 W 1013,9 50 11 0,0
25.06.2017 18:00:00 21,5 13,5 22,7 28,4 25,9 19,4 26 14 41 22 W 1013,9 10 6 0,0
25.06.2017 17:00:00 21,7 13,3 23,9 29,1 25,8 19,4 25 14 41 22 W 1014,2 50 5 0,0
25.06.2017 16:00:00 20,9 14,0 21,9 30,3 25,6 19,4 22 12 33 18 W 1014,6 50 3 0,0
25.06.2017 15:00:00 21,4 15,1 26,9 31,0 25,1 19,4 19 10 40 22 W 1014,5 50 13 0,0
25.06.2017 14:00:00 21,0 14,3 24,2 31,9 24,5 19,4 25 14 42 23 W 1014,6 50 44 0,0
25.06.2017 13:00:00 19,1 14,5 21,5 28,0 24,1 19,4 20 11 42 23 W 1015,3 50 5 0,0
25.06.2017 12:00:00 20,7 13,7 23,3 29,2 23,4 19,4 24 13 42 23 W 1014,6 10 36 0,0
25.06.2017 11:00:00 20,7 13,8 24,4 26,5 22,9 19,4 22 12 36 19 W 1014,4 50 26 0,0
25.06.2017 10:00:00 20,8 14,0 25,0 25,5 22,4 19,4 16 9 26 14 WZW 1014,5 10 57 0,0
25.06.2017 09:00:00 19,1 13,0 21,2 22,2 22,2 19,4 18 10 27 14 WZW 1014,8 10 55 0,0
25.06.2017 08:00:00 17,5 12,4 17,9 20,0 22,3 19,3 8 5 15 8 WZW 1014,5 50 51 0,0
25.06.2017 07:00:00 15,6 12,2 15,1 18,5 22,7 19,3 8 4 11 6 W 1014,9 50 51 0,0
25.06.2017 06:00:00 14,0 11,0 11,1 18,6 23,1 19,3 2 1 11 6 - 1015,5 10 0 0,0
25.06.2017 05:00:00 14,3 10,9 11,1 19,4 23,4 19,3 4 2 11 6 W 1015,5 50 0 0,0
25.06.2017 04:00:00 15,8 11,4 13,8 20,0 23,8 19,3 8 5 17 9 WZW 1015,6 50 0 0,0
25.06.2017 03:00:00 16,1 11,3 15,1 20,4 24,3 19,3 3 2 9 5 W 1015,7 50 0 0,0
25.06.2017 02:00:00 16,8 11,0 14,0 20,8 24,8 19,3 1 1 8 4 ZZW 1015,9 50 0 0,0
25.06.2017 01:00:00 15,7 10,9 12,2 21,6 25,3 19,3 2 1 9 5 - 1015,9 10 0 0,0
25.06.2017 00:00:00 15,9 11,2 12,6 22,7 25,9 19,3 4 2 11 6 - 1016,0 10 0 0,0
24.06.2017 23:00:00 17,1 11,0 14,0 24,1 26,5 19,3 8 4 15 8 WNW 1016,0 10 0 0,0
24.06.2017 22:00:00 18,9 11,1 17,0 25,7 27,0 19,3 13 7 23 13 WNW 1015,4 60 28 0,0
24.06.2017 21:00:00 20,8 11,4 19,6 27,7 27,4 19,3 16 9 24 13 WNW 1015,1 10 60 0,0
24.06.2017 20:00:00 22,5 11,2 21,9 29,9 27,6 19,3 16 9 29 16 NW 1015,1 60 60 0,0
24.06.2017 19:00:00 22,9 11,6 25,0 32,5 27,5 19,3 22 12 35 19 W 1015,2 60 60 0,0
24.06.2017 18:00:00 23,1 11,3 26,9 33,9 27,1 19,3 22 12 36 19 W 1015,6 60 59 0,0
24.06.2017 17:00:00 23,3 11,5 28,6 34,9 26,5 19,3 24 13 42 23 W 1015,9 10 60 0,0
24.06.2017 16:00:00 23,0 11,5 28,1 34,7 25,7 19,3 24 13 39 21 W 1016,3 50 59 0,0
24.06.2017 15:00:00 22,3 10,7 28,2 33,3 24,9 19,3 26 14 44 24 W 1016,9 50 55 0,0
24.06.2017 14:00:00 21,5 11,7 26,8 31,2 24,1 19,3 22 12 38 21 W 1017,4 50 42 0,0
24.06.2017 13:00:00 19,6 10,6 22,4 30,0 23,4 19,3 26 14 42 23 W 1018,0 10 52 0,0
24.06.2017 12:00:00 19,8 11,1 24,2 27,6 22,7 19,3 28 15 51 27 W 1018,3 10 48 0,0
24.06.2017 11:00:00 18,7 10,9 22,8 25,2 22,3 19,3 28 15 45 24 W 1018,9 10 52 0,0
24.06.2017 10:00:00 17,5 12,0 20,7 23,1 22,0 19,3 22 12 34 18 W 1019,3 40 55 0,0
24.06.2017 09:00:00 16,3 11,7 18,3 20,5 22,0 19,2 26 14 34 18 W 1019,7 40 54 0,0
24.06.2017 08:00:00 15,9 12,3 16,6 19,1 22,1 19,2 21 11 28 15 W 1019,4 10 25 0,0
24.06.2017 07:00:00 15,5 12,1 15,6 18,5 22,4 19,2 15 8 23 13 W 1019,4 10 0 0,0
24.06.2017 06:00:00 15,4 12,6 14,9 18,4 22,7 19,2 14 8 20 11 W 1019,1 30 0 0,0
24.06.2017 05:00:00 14,7 12,4 13,2 18,6 23,1 19,2 15 8 18 10 W 1019,1 10 0 0,0
24.06.2017 04:00:00 14,4 12,0 12,2 18,8 23,5 19,2 9 5 13 7 W 1019,2 10 0 0,0
24.06.2017 03:00:00 13,9 11,9 11,0 19,4 24,0 19,2 4 2 4 2 WZW 1018,9 50 0 0,0
24.06.2017 02:00:00 15,0 12,2 12,4 20,3 24,6 19,2 2 1 13 7 ZW 1018,8 50 0 0,0
24.06.2017 01:00:00 17,2 12,2 15,1 21,2 25,1 19,2 10 6 22 12 WNW 1018,8 50 0 0,0
24.06.2017 00:00:00 18,3 12,7 16,4 22,2 25,7 19,2 13 7 25 14 WNW 1019,0 50 0 0,0
23.06.2017 23:00:00 18,9 13,0 16,3 23,5 26,3 19,2 9 5 22 12 W 1018,7 10 0 0,0
23.06.2017 22:00:00 20,2 12,7 17,4 25,1 26,8 19,2 12 7 26 14 WNW 1017,7 50 28 0,0
23.06.2017 21:00:00 22,7 10,8 20,7 26,9 27,2 19,2 20 11 35 19 W 1016,8 50 60 0,0
23.06.2017 20:00:00 23,9 10,9 22,8 29,1 27,3 19,2 24 13 40 21 W 1016,4 10 60 0,0
23.06.2017 19:00:00 24,5 11,4 26,2 31,5 27,2 19,2 23 13 35 19 W 1016,4 50 60 0,0
23.06.2017 18:00:00 24,8 11,7 27,9 32,7 26,9 19,1 21 11 40 21 WNW 1016,3 50 60 0,0
23.06.2017 17:00:00 25,2 12,1 30,3 33,3 26,3 19,1 21 11 44 24 WNW 1016,5 50 60 0,0
23.06.2017 16:00:00 24,8 12,9 29,0 32,9 25,7 19,1 28 15 42 23 WNW 1016,7 50 60 0,0
23.06.2017 15:00:00 24,5 13,2 29,9 31,9 25,0 19,1 23 13 39 21 W 1016,9 50 60 0,0
23.06.2017 14:00:00 24,2 12,9 28,8 30,4 24,4 19,1 21 11 35 19 WZW 1016,8 50 60 0,0
23.06.2017 13:00:00 22,6 12,8 27,1 28,8 23,8 19,1 23 12 34 18 WZW 1017,3 45 60 0,0
23.06.2017 12:00:00 21,9 13,6 25,7 27,2 23,3 19,1 18 10 31 17 W 1017,3 40 60 0,0
23.06.2017 11:00:00 20,5 14,5 23,4 25,5 22,9 19,1 22 12 28 15 W 1017,3 10 60 0,0
23.06.2017 10:00:00 19,4 14,5 22,4 23,3 22,7 19,1 16 9 24 13 W 1017,4 50 60 0,0
23.06.2017 09:00:00 18,4 14,2 19,9 21,1 22,7 19,0 18 10 24 13 W 1016,9 10 60 0,0
23.06.2017 08:00:00 17,7 13,7 18,0 19,9 22,9 19,0 16 9 22 12 W 1016,4 10 60 0,0
23.06.2017 07:00:00 17,4 13,6 16,6 19,5 23,3 19,0 13 7 16 9 W 1015,6 50 6 0,0
23.06.2017 06:00:00 17,9 13,6 15,9 19,8 23,6 19,0 14 8 24 13 W 1015,3 40 0 0,0
23.06.2017 05:00:00 19,1 14,5 17,4 20,4 24,0 19,0 15 8 21 11 W 1014,4 10 0 0,0
23.06.2017 04:00:00 20,2 15,2 17,8 21,0 24,3 19,0 12 6 15 8 W 1013,8 40 0 0,0
23.06.2017 03:00:00 21,1 16,5 17,7 21,6 24,7 19,0 7 4 18 10 WZW 1013,6 40 0 0,0
23.06.2017 02:00:00 22,8 16,9 21,0 22,1 25,1 18,9 12 6 26 14 W 1012,9 40 0 0,0
23.06.2017 01:00:00 23,3 15,7 21,2 22,5 25,5 18,9 16 9 26 14 WNW 1012,4 50 0 0,0
23.06.2017 00:00:00 23,5 14,0 19,1 23,3 26,0 18,9 8 4 15 8 W 1011,8 50 0 0,0
22.06.2017 23:00:00 24,4 13,2 19,2 24,3 26,4 18,9 8 4 11 6 WZW 1011,2 50 0 0,0
22.06.2017 22:00:00 23,5 17,4 19,6 25,5 26,9 18,9 11 6 14 8 WZW 1011,1 10 3 0,0
22.06.2017 21:00:00 25,9 17,6 23,2 26,8 27,2 18,9 7 4 24 13 WZW 1010,7 50 50 0,0
22.06.2017 20:00:00 26,8 16,6 25,4 28,6 27,3 18,9 18 10 40 22 Z 1010,4 50 44 0,0
22.06.2017 19:00:00 30,0 19,5 30,6 30,5 27,2 18,8 29 15 41 22 ZZW 1009,5 50 58 0,0
22.06.2017 18:00:00 29,3 21,8 30,9 30,8 27,0 18,8 16 9 27 15 ZZW 1010,1 40 60 0,0
22.06.2017 17:00:00 26,4 24,1 29,5 28,5 27,1 18,8 5 3 15 8 OZO 1011,2 10 17 1,4
22.06.2017 16:00:00 24,2 21,0 23,7 28,6 27,4 18,8 8 4 21 11 - 1012,4 10 4 1,6
22.06.2017 15:00:00 21,9 20,8 22,0 29,4 27,5 18,8 12 7 51 28 Z 1013,0 10 0 5,0
22.06.2017 14:00:00 30,2 18,6 30,8 34,6 27,0 18,8 13 7 24 13 ZW 1011,5 10 35 0,0
22.06.2017 13:00:00 31,7 17,9 37,9 33,9 26,3 18,8 13 7 24 13 ZW 1012,5 10 45 0,0
22.06.2017 12:00:00 30,4 17,4 35,3 32,5 25,6 18,7 11 6 22 12 ZZW 1013,1 10 60 0,0
22.06.2017 11:00:00 28,8 17,8 33,5 30,0 25,1 18,7 11 6 18 10 Z 1013,6 10 59 0,0
22.06.2017 10:00:00 26,6 17,8 29,7 27,5 24,8 18,7 8 4 16 9 Z 1013,9 10 60 0,0
22.06.2017 09:00:00 25,6 17,4 26,9 25,1 24,7 18,7 3 2 13 7 OZO 1014,3 50 56 0,0
22.06.2017 08:00:00 23,0 17,1 23,9 23,5 24,8 18,7 8 4 13 7 Z 1014,5 10 60 0,0
22.06.2017 07:00:00 21,4 17,4 20,0 22,4 25,1 18,6 4 2 9 5 Z 1014,8 45 51 0,0
22.06.2017 06:00:00 18,0 15,5 15,0 22,6 25,5 18,6 3 2 5 3 ZZO 1015,0 45 0 0,0
22.06.2017 05:00:00 19,2 15,9 15,8 23,1 25,9 18,6 4 2 5 3 - 1014,9 10 0 0,0
22.06.2017 04:00:00 19,6 15,9 16,3 23,7 26,3 18,6 2 1 5 3 O 1015,0 50 0 0,0
22.06.2017 03:00:00 20,0 17,5 16,5 24,4 26,7 18,6 0 0 4 2 N 1015,1 50 0 0,0
22.06.2017 02:00:00 20,5 15,5 16,8 25,1 27,2 18,6 2 1 5 3 - 1015,1 10 0 0,0
22.06.2017 01:00:00 21,3 15,9 17,7 26,0 27,7 18,6 6 3 9 5 ZO 1015,3 50 0 0,0
22.06.2017 00:00:00 21,6 16,1 18,7 27,0 28,2 18,5 8 4 9 5 O 1015,2 10 0 0,0
21.06.2017 23:00:00 22,5 16,5 18,7 28,3 28,6 18,5 4 2 5 3 O 1015,0 10 0 0,0
21.06.2017 22:00:00 24,5 17,3 20,8 30,0 29,0 18,5 4 2 5 3 ZO 1014,3 50 15 0,0
21.06.2017 21:00:00 27,3 17,9 25,6 31,6 29,3 18,5 5 3 5 3 O 1013,5 50 46 0,0
21.06.2017 20:00:00 30,2 13,9 28,5 33,4 29,4 18,5 3 2 8 4 ZW 1013,1 50 56 0,0
21.06.2017 19:00:00 29,6 14,9 30,1 35,3 29,3 18,5 6 3 16 9 N 1013,2 50 46 0,0
21.06.2017 18:00:00 30,4 14,9 35,2 36,7 28,9 18,5 10 5 16 9 W 1013,1 45 60 0,0
21.06.2017 17:00:00 30,3 16,0 35,5 37,2 28,4 18,5 8 4 16 9 - 1013,4 10 57 0,0
21.06.2017 16:00:00 30,2 15,2 37,0 37,2 27,7 18,4 5 3 15 8 ZZW 1013,9 10 60 0,0
21.06.2017 15:00:00 29,2 16,4 36,6 36,3 27,0 18,4 5 3 13 7 NO 1014,4 40 60 0,0
21.06.2017 14:00:00 28,3 16,3 36,0 35,1 26,2 18,4 6 3 16 9 O 1014,9 40 60 0,0
21.06.2017 13:00:00 27,3 16,1 34,4 33,7 25,5 18,4 8 4 17 9 NO 1015,3 10 60 0,0
21.06.2017 12:00:00 26,1 16,4 34,4 31,4 24,8 18,4 4 2 15 8 - 1015,6 10 60 0,0
21.06.2017 11:00:00 25,5 17,1 31,0 28,6 24,3 18,4 7 4 16 9 O 1015,6 40 60 0,0
21.06.2017 10:00:00 23,8 16,7 28,4 25,9 24,1 18,3 11 6 24 13 O 1015,8 40 60 0,0
21.06.2017 09:00:00 22,4 17,3 24,6 23,8 24,2 18,3 12 6 24 13 O 1015,8 40 60 0,0
21.06.2017 08:00:00 20,9 16,9 21,2 22,7 24,4 18,3 14 7 25 14 ONO 1015,9 50 51 0,0
21.06.2017 07:00:00 20,2 16,2 19,9 22,4 24,7 18,3 19 10 29 15 ONO 1015,7 50 43 0,0
21.06.2017 06:00:00 19,7 15,9 18,5 22,5 25,0 18,3 17 9 26 14 ONO 1015,6 50 0 0,0
21.06.2017 05:00:00 19,8 15,5 18,2 23,0 25,4 18,3 16 9 29 16 ONO 1015,2 50 0 0,0
21.06.2017 04:00:00 21,0 15,8 19,5 23,6 25,7 18,3 18 10 28 15 ONO 1015,0 50 0 0,0
21.06.2017 03:00:00 21,6 15,5 20,0 24,2 26,2 18,3 18 10 31 17 ONO 1015,2 50 0 0,0
21.06.2017 02:00:00 22,7 14,4 21,4 24,9 26,6 18,2 20 11 31 17 NO 1015,2 50 0 0,0

tt = temperatuur
td = dauwpunt
tt 5cm = temperatuur 5cm
tt -5cm = temperatuur -5cm
tt -20cm = temperatuur -20cm
tt -100cm = temperatuur -100cm
ff = windsnelheid
fx = windstoten
dd = windrichting
ppp = luchtdruk
vv = zicht
sd = Zonneschijnduur
rr = neerslag

Weerstations in de omgeving